Weather History for Farmington, MO

Change the Weather History Date:

Saturday, December 1, 2012

  Actual Average Record
Temperature  
Mean Temperature 57 °F -  
Max Temperature 66 °F 47 °F 66 °F (2012)
Min Temperature 48 °F 32 °F 14 °F (2002)
Degree Days  
Heating Degree Days 8    
Growing Degree Days 7 (Base 50)    
Moisture  
Dew Point 49 °F    
Average Humidity 71    
Maximum Humidity 93    
Minimum Humidity 59    
Precipitation  
Precipitation 0.00 in - - ()
Sea Level Pressure  
Sea Level Pressure 30.08 in    
Wind  
Wind Speed 10 mph (South)    
Max Wind Speed 21 mph    
Max Gust Speed 29 mph    
Visibility 10 miles    
Events      
Averages and records for this station are not official NWS values.
T = Trace of Precipitation, MM = Missing Value Source: NWS Daily Summary

Daily Weather History Graph

Daily Weather History Graph

Search for Another Location

Airport:

Trip Planner

Search our weather history database for the weather conditions in past years. The results will help you decide how hot, cold, wet, or windy it might be!

Date:

Astronomy

Dec. 01, 2012 Rise Set
Actual Time 6:58 AM CST 4:43 PM CST
Civil Twilight 6:29 AM CST 5:11 PM CST
Nautical Twilight 5:57 AM CST 5:44 PM CST
Astronomical Twilight 5:25 AM CST 6:16 PM CST
Moon 7:32 PM CST (12/1) 9:12 AM CST (12/1)
Length of Visible Light 10h 42m
Length of Day
9h 44m
Waning Gibbous, 91% of the Moon is Illuminated
Dec 1
Waning Gibbous
Dec 6
Last Quarter
Dec 13
New
Dec 19
First Quarter
Dec 28
Full

Hourly Weather History & Observations

Time (CST) Temp. Dew Point Humidity Pressure Visibility Wind Dir Wind Speed Gust Speed Precip Events Conditions
12:15 AM 50.0 °F 44.6 °F 82% 30.15 in 10.0 mi South 6.9 mph - N/A   Mostly Cloudy
12:35 AM 50.0 °F 44.6 °F 82% 30.15 in 10.0 mi South 5.8 mph - N/A   Mostly Cloudy
12:55 AM 51.8 °F 46.4 °F 82% 30.15 in 10.0 mi South 4.6 mph - N/A   Overcast
1:15 AM 51.8 °F 46.4 °F 82% 30.15 in 10.0 mi South 4.6 mph - N/A   Overcast
1:35 AM 51.8 °F 46.4 °F 82% 30.15 in 10.0 mi South 4.6 mph - N/A   Overcast
2:15 AM 51.8 °F 44.6 °F 76% 30.15 in 10.0 mi South 9.2 mph - N/A   Partly Cloudy
3:15 AM 51.8 °F 46.4 °F 82% 30.16 in 10.0 mi South 6.9 mph - N/A   Overcast
3:35 AM 51.8 °F 46.4 °F 82% 30.15 in 10.0 mi South 6.9 mph - N/A   Overcast
4:15 AM 51.8 °F 44.6 °F 76% 30.15 in 10.0 mi South 5.8 mph - N/A   Partly Cloudy
4:35 AM 50.0 °F 44.6 °F 82% 30.15 in 10.0 mi South 8.1 mph - N/A   Mostly Cloudy
4:55 AM 51.8 °F 46.4 °F 82% 30.15 in 10.0 mi South 8.1 mph - N/A   Overcast
5:15 AM 51.8 °F 46.4 °F 82% 30.14 in 10.0 mi South 6.9 mph - N/A   Overcast
6:35 AM 50.0 °F 46.4 °F 87% 30.14 in 10.0 mi South 5.8 mph - N/A   Clear
7:15 AM 48.2 °F 46.4 °F 93% 30.15 in 9.0 mi SSE 6.9 mph - N/A   Clear
7:35 AM 48.2 °F 46.4 °F 93% 30.14 in 8.0 mi SSE 6.9 mph - N/A   Clear
7:55 AM 50.0 °F 46.4 °F 87% 30.14 in 9.0 mi SSE 5.8 mph - N/A   Clear
8:15 AM 51.8 °F 48.2 °F 88% 30.14 in 10.0 mi SSE 8.1 mph - N/A   Clear
8:35 AM 53.6 °F 48.2 °F 82% 30.14 in 10.0 mi South 10.4 mph - N/A   Clear
9:15 AM 57.2 °F 48.2 °F 72% 30.14 in 10.0 mi South 11.5 mph - N/A   Clear
9:35 AM 57.2 °F 48.2 °F 72% 30.14 in 10.0 mi South 11.5 mph - N/A   Clear
9:55 AM 59.0 °F 48.2 °F 67% 30.14 in 10.0 mi South 11.5 mph - N/A   Clear
10:15 AM 60.8 °F 50.0 °F 68% 30.13 in 10.0 mi South 12.7 mph 18.4 mph N/A   Clear
10:35 AM 60.8 °F 48.2 °F 63% 30.12 in 10.0 mi South 11.5 mph - N/A   Clear
11:15 AM 62.6 °F 51.8 °F 68% 30.11 in 10.0 mi South 12.7 mph 17.3 mph N/A   Clear
11:35 AM 64.4 °F 51.8 °F 64% 30.09 in 10.0 mi South 13.8 mph 23.0 mph N/A   Clear
12:15 PM 66.2 °F 51.8 °F 60% 30.07 in 10.0 mi South 17.3 mph 24.2 mph N/A   Partly Cloudy
12:35 PM 66.2 °F 51.8 °F 60% 30.06 in 10.0 mi South 18.4 mph 25.3 mph N/A   Partly Cloudy
12:55 PM 66.2 °F 51.8 °F 60% 30.05 in 10.0 mi South 15.0 mph 21.9 mph N/A   Scattered Clouds
1:15 PM 66.2 °F 51.8 °F 60% 30.05 in 10.0 mi South 11.5 mph - N/A   Mostly Cloudy
1:35 PM 66.2 °F 51.8 °F 60% 30.04 in 10.0 mi South 19.6 mph 23.0 mph N/A   Mostly Cloudy
1:55 PM 66.2 °F 51.8 °F 60% 30.03 in 10.0 mi South 18.4 mph 25.3 mph N/A   Overcast
2:15 PM 64.4 °F 51.8 °F 64% 30.02 in 10.0 mi South 17.3 mph - N/A   Partly Cloudy
2:35 PM 64.4 °F 51.8 °F 64% 30.02 in 10.0 mi South 17.3 mph 24.2 mph N/A   Mostly Cloudy
2:55 PM 64.4 °F 51.8 °F 64% 30.02 in 10.0 mi South 18.4 mph 24.2 mph N/A   Mostly Cloudy
3:15 PM 64.4 °F 51.8 °F 64% 30.02 in 10.0 mi South 16.1 mph 23.0 mph N/A   Mostly Cloudy
3:35 PM 64.4 °F 51.8 °F 64% 30.01 in 10.0 mi South 18.4 mph 24.2 mph N/A   Scattered Clouds
3:55 PM 64.4 °F 51.8 °F 64% 30.01 in 10.0 mi South 20.7 mph 28.8 mph N/A   Partly Cloudy
4:15 PM 62.6 °F 51.8 °F 68% 30.02 in 10.0 mi South 17.3 mph 27.6 mph N/A   Partly Cloudy
4:35 PM 62.6 °F 51.8 °F 68% 30.02 in 10.0 mi South 15.0 mph 28.8 mph N/A   Clear
4:55 PM 62.6 °F 50.0 °F 63% 30.02 in 10.0 mi South 13.8 mph 25.3 mph N/A   Clear
5:15 PM 60.8 °F 50.0 °F 68% 30.02 in 10.0 mi South 17.3 mph 23.0 mph N/A   Partly Cloudy
5:55 PM 60.8 °F 50.0 °F 68% 30.02 in 10.0 mi South 16.1 mph 20.7 mph N/A   Overcast
6:15 PM 60.8 °F 50.0 °F 68% 30.02 in 10.0 mi South 15.0 mph 18.4 mph N/A   Scattered Clouds
6:35 PM 60.8 °F 50.0 °F 68% 30.02 in 10.0 mi South 13.8 mph 21.9 mph N/A   Clear
6:55 PM 60.8 °F 50.0 °F 68% 30.02 in 10.0 mi South 15.0 mph 20.7 mph N/A   Clear
7:15 PM 60.8 °F 50.0 °F 68% 30.01 in 10.0 mi South 16.1 mph 24.2 mph N/A   Clear
7:35 PM 60.8 °F 50.0 °F 68% 30.02 in 10.0 mi South 16.1 mph - N/A   Clear
7:55 PM 60.8 °F 50.0 °F 68% 30.02 in 10.0 mi South 12.7 mph 21.9 mph N/A   Clear
8:15 PM 60.8 °F 50.0 °F 68% 30.02 in 10.0 mi South 11.5 mph 21.9 mph N/A   Partly Cloudy
8:35 PM 60.8 °F 48.2 °F 63% 30.02 in 10.0 mi South 16.1 mph - N/A   Mostly Cloudy
8:55 PM 60.8 °F 50.0 °F 68% 30.04 in 10.0 mi South 11.5 mph 21.9 mph N/A   Mostly Cloudy
9:15 PM 60.8 °F 50.0 °F 68% 30.05 in 10.0 mi South 12.7 mph 21.9 mph N/A   Overcast
9:35 PM 62.6 °F 50.0 °F 63% 30.05 in 10.0 mi South 15.0 mph 23.0 mph N/A   Overcast
9:55 PM 62.6 °F 48.2 °F 59% 30.06 in 10.0 mi SSW 15.0 mph 23.0 mph N/A   Overcast
10:15 PM 62.6 °F 48.2 °F 59% 30.06 in 10.0 mi South 12.7 mph 23.0 mph N/A   Overcast
10:35 PM 60.8 °F 48.2 °F 63% 30.03 in 10.0 mi South 19.6 mph 25.3 mph N/A   Mostly Cloudy
10:55 PM 60.8 °F 48.2 °F 63% 30.04 in 10.0 mi South 18.4 mph 25.3 mph N/A   Overcast
11:15 PM 60.8 °F 50.0 °F 68% 30.04 in 10.0 mi South 12.7 mph 27.6 mph N/A   Overcast
11:35 PM 60.8 °F 50.0 °F 68% 30.04 in 10.0 mi South 13.8 mph 18.4 mph N/A   Overcast
11:55 PM 60.8 °F 50.0 °F 68% 30.04 in 10.0 mi South 15.0 mph - N/A   Overcast